Weather History for Viroqua, WI

Change the Weather History Date:

Tuesday, October 30, 2012

  Actual Average (KLSE) Record (KLSE)
Temperature  
Mean Temperature 37 °F 45 °F  
Max Temperature 44 °F 53 °F 80 °F (1924)
Min Temperature 30 °F 36 °F 7 °F (1925)
Degree Days  
Heating Degree Days 28 20  
Month to date heating degree days 448  
Since 1 July heating degree days 608  
Cooling Degree Days 0 0  
Month to date cooling degree days 7  
Year to date cooling degree days 781  
Moisture  
Dew Point 25 °F    
Average Humidity 65    
Maximum Humidity 87    
Minimum Humidity 37    
Precipitation  
Precipitation 0.00 in 0.06 in 1.81 in (1919)
Month to date precipitation 2.11  
Year to date precipitation 29.63  
Snow  
Snow 0.00 in 0.00 in 0.50 in (1939)
Month to date snowfall 0.2  
Since 1 July snowfall 0.2  
Snow Depth -    
Sea Level Pressure  
Sea Level Pressure 30.04 in    
Wind  
Wind Speed 10 mph (North)    
Max Wind Speed 18 mph    
Max Gust Speed 25 mph    
Visibility 10 miles    
Events      
T = Trace of Precipitation, MM = Missing Value Source: NWS Daily Summary

Daily Weather History Graph

Daily Weather History Graph

Search for Another Location

Airport:

Trip Planner

Search our weather history database for the weather conditions in past years. The results will help you decide how hot, cold, wet, or windy it might be!

Date:

Astronomy

Oct. 30, 2012 Rise Set
Actual Time 7:37 AM CDT 5:56 PM CDT
Civil Twilight 7:07 AM CDT 6:26 PM CDT
Nautical Twilight 6:33 AM CDT 6:59 PM CDT
Astronomical Twilight 6:00 AM CDT 7:33 PM CDT
Moon 6:23 PM CDT (10/30) 8:26 AM CDT (10/30)
Length of Visible Light 11h 18m
Length of Day
10h 19m
Full, 99% of the Moon is Illuminated
Oct 30
Full
Nov 6
Last Quarter
Nov 13
New
Nov 20
First Quarter
Nov 28
Full

Hourly Weather History & Observations

Time (CDT) Temp. Windchill Dew Point Humidity Pressure Visibility Wind Dir Wind Speed Gust Speed Precip Events Conditions
12:15 AM 33.8 °F 27.7 °F 23.0 °F 65% 30.19 in 10.0 mi North 6.9 mph - N/A   Clear
12:35 AM 33.8 °F 27.7 °F 23.0 °F 65% 30.19 in 10.0 mi NNE 6.9 mph - N/A   Clear
12:55 AM 33.8 °F 29.6 °F 23.0 °F 65% 30.19 in 10.0 mi North 4.6 mph - N/A   Clear
1:15 AM 33.8 °F 29.6 °F 23.0 °F 65% 30.19 in 10.0 mi North 4.6 mph - N/A   Clear
1:35 AM 33.8 °F 29.6 °F 23.0 °F 65% 30.18 in 10.0 mi NNE 4.6 mph - N/A   Clear
1:55 AM 32.0 °F 28.7 °F 23.0 °F 69% 30.17 in 10.0 mi North 3.5 mph - N/A   Clear
2:15 AM 32.0 °F 27.5 °F 23.0 °F 69% 30.17 in 10.0 mi North 4.6 mph - N/A   Clear
2:35 AM 32.0 °F 27.5 °F 23.0 °F 69% 30.17 in 10.0 mi North 4.6 mph - N/A   Clear
2:55 AM 32.0 °F 27.5 °F 23.0 °F 69% 30.16 in 10.0 mi North 4.6 mph - N/A   Clear
3:15 AM 32.0 °F 27.5 °F 24.8 °F 75% 30.16 in 10.0 mi North 4.6 mph - N/A   Clear
3:55 AM 32.0 °F 26.4 °F 24.8 °F 75% 30.14 in 10.0 mi North 5.8 mph - N/A   Clear
4:15 AM 32.0 °F 25.6 °F 24.8 °F 75% 30.14 in 10.0 mi North 6.9 mph - N/A   Clear
4:35 AM 32.0 °F 25.6 °F 24.8 °F 75% 30.14 in 10.0 mi NNW 6.9 mph - N/A   Clear
4:55 AM 30.2 °F 23.4 °F 24.8 °F 80% 30.14 in 10.0 mi NNW 6.9 mph - N/A   Clear
5:15 AM 30.2 °F 23.4 °F 24.8 °F 80% 30.13 in 7.0 mi NNW 6.9 mph - N/A   Clear
5:35 AM 32.0 °F 24.8 °F 26.6 °F 80% 30.14 in 10.0 mi NNW 8.1 mph - N/A   Clear
5:55 AM 30.2 °F 22.6 °F 26.6 °F 86% 30.13 in 10.0 mi NNW 8.1 mph - N/A   Clear
6:15 AM 30.2 °F 23.4 °F 26.6 °F 86% 30.13 in 10.0 mi North 6.9 mph - N/A   Clear
6:35 AM 30.2 °F 21.9 °F 26.6 °F 86% 30.12 in 10.0 mi North 9.2 mph - N/A   Clear
6:55 AM 32.0 °F 23.6 °F 26.6 °F 80% 30.12 in 10.0 mi North 10.4 mph - N/A   Clear
7:35 AM 32.0 °F 23.6 °F 26.6 °F 80% 30.11 in 10.0 mi North 10.4 mph - N/A   Clear
7:55 AM 32.0 °F 23.6 °F 28.4 °F 87% 30.10 in 10.0 mi North 10.4 mph - N/A   Clear
8:15 AM 32.0 °F 22.1 °F 28.4 °F 87% 30.10 in 10.0 mi North 13.8 mph - N/A   Clear
8:35 AM 32.0 °F 22.1 °F 28.4 °F 87% 30.10 in 10.0 mi North 13.8 mph 19.6 mph N/A   Clear
8:55 AM 33.8 °F 24.3 °F 28.4 °F 81% 30.09 in 10.0 mi North 13.8 mph - N/A   Clear
9:15 AM 33.8 °F 23.9 °F 30.2 °F 87% 30.09 in 10.0 mi North 15.0 mph 19.6 mph N/A   Clear
9:35 AM 35.6 °F 25.9 °F 30.2 °F 81% 30.08 in 10.0 mi North 16.1 mph 20.7 mph N/A   Clear
9:55 AM 35.6 °F 25.9 °F 30.2 °F 81% 30.08 in 10.0 mi North 16.1 mph - N/A   Clear
10:15 AM 37.4 °F 28.5 °F 28.4 °F 70% 30.07 in 10.0 mi North 15.0 mph 21.9 mph N/A   Clear
10:35 AM 37.4 °F 27.8 °F 28.4 °F 70% 30.07 in 10.0 mi NNW 17.3 mph 21.9 mph N/A   Clear
10:55 AM 39.2 °F 31.6 °F 28.4 °F 65% 30.07 in 10.0 mi North 12.7 mph 21.9 mph N/A   Clear
11:15 AM 39.2 °F 30.8 °F 28.4 °F 65% 30.06 in 10.0 mi North 15.0 mph 20.7 mph N/A   Clear
11:35 AM 41.0 °F 32.5 °F 26.6 °F 57% 30.05 in 10.0 mi North 17.3 mph - N/A   Clear
11:55 AM 41.0 °F 33.1 °F 26.6 °F 57% 30.04 in 10.0 mi North 15.0 mph 21.9 mph N/A   Clear
12:15 PM 42.8 °F 35.4 °F 26.6 °F 53% 30.03 in 10.0 mi NNW 15.0 mph 19.6 mph N/A   Clear
12:35 PM 42.8 °F 34.8 °F 26.6 °F 53% 30.03 in 10.0 mi North 17.3 mph 21.9 mph N/A   Clear
12:55 PM 44.6 °F 37.2 °F 26.6 °F 49% 30.01 in 10.0 mi NNW 17.3 mph 23.0 mph N/A   Clear
1:15 PM 44.6 °F 36.9 °F 26.6 °F 49% 30.00 in 10.0 mi NNW 18.4 mph - N/A   Clear
1:35 PM 44.6 °F 37.4 °F 26.6 °F 49% 29.99 in 10.0 mi North 16.1 mph 20.7 mph N/A   Clear
1:55 PM 44.6 °F 37.4 °F 26.6 °F 49% 29.98 in 10.0 mi North 16.1 mph 20.7 mph N/A   Clear
2:15 PM 44.6 °F 37.8 °F 24.8 °F 46% 29.97 in 10.0 mi North 15.0 mph 23.0 mph N/A   Clear
2:35 PM 44.6 °F 38.1 °F 24.8 °F 46% 29.97 in 10.0 mi North 13.8 mph 23.0 mph N/A   Clear
2:55 PM 44.6 °F 38.8 °F 24.8 °F 46% 29.96 in 10.0 mi North 11.5 mph - N/A   Clear
3:15 PM 44.6 °F 37.4 °F 24.8 °F 46% 29.96 in 10.0 mi North 16.1 mph 21.9 mph N/A   Clear
3:35 PM 44.6 °F 37.4 °F 24.8 °F 46% 29.96 in 10.0 mi North 16.1 mph 23.0 mph N/A   Clear
3:55 PM 44.6 °F 37.2 °F 23.0 °F 43% 29.96 in 10.0 mi North 17.3 mph 25.3 mph N/A   Clear
4:15 PM 44.6 °F 37.2 °F 24.8 °F 46% 29.95 in 10.0 mi North 17.3 mph 21.9 mph N/A   Clear
4:35 PM 44.6 °F 36.9 °F 19.4 °F 37% 29.95 in 10.0 mi North 18.4 mph 25.3 mph N/A   Clear
4:55 PM 44.6 °F 39.2 °F 23.0 °F 43% 29.95 in 10.0 mi North 10.4 mph - N/A   Clear
5:15 PM 44.6 °F 38.8 °F 23.0 °F 43% 29.95 in 10.0 mi North 11.5 mph - N/A   Clear
5:35 PM 42.8 °F 37.5 °F 24.8 °F 49% 29.95 in 10.0 mi North 9.2 mph - N/A   Clear
5:55 PM 41.0 °F 35.2 °F 24.8 °F 53% 29.96 in 10.0 mi North 9.2 mph - N/A   Clear
6:15 PM 37.4 °F 31.4 °F 24.8 °F 60% 29.96 in 10.0 mi North 8.1 mph - N/A   Clear
6:35 PM 37.4 °F 31.4 °F 24.8 °F 60% 29.96 in 10.0 mi North 8.1 mph - N/A   Clear
6:55 PM 37.4 °F 30.3 °F 23.0 °F 56% 29.96 in 10.0 mi North 10.4 mph - N/A   Clear
7:15 PM 35.6 °F 28.0 °F 23.0 °F 60% 29.96 in 10.0 mi North 10.4 mph - N/A   Clear
7:55 PM 35.6 °F 27.1 °F 23.0 °F 60% 29.96 in 10.0 mi North 12.7 mph - N/A   Clear
8:15 PM 35.6 °F 26.6 °F 23.0 °F 60% 29.96 in 10.0 mi North 13.8 mph 19.6 mph N/A   Clear
8:35 PM 35.6 °F 27.1 °F 21.2 °F 56% 29.96 in 10.0 mi North 12.7 mph 18.4 mph N/A   Clear
8:55 PM 35.6 °F 27.5 °F 21.2 °F 56% 29.96 in 10.0 mi North 11.5 mph - N/A   Clear
9:15 PM 35.6 °F 27.5 °F 21.2 °F 56% 29.96 in 10.0 mi North 11.5 mph 19.6 mph N/A   Clear
9:35 PM 33.8 °F 24.3 °F 23.0 °F 65% 29.95 in 10.0 mi North 13.8 mph - N/A   Clear
9:55 PM 33.8 °F 24.3 °F 23.0 °F 65% 29.95 in 10.0 mi North 13.8 mph 23.0 mph N/A   Clear
10:35 PM 32.0 °F 22.1 °F 23.0 °F 69% 29.95 in 10.0 mi North 13.8 mph - N/A   Clear
10:55 PM 32.0 °F 22.1 °F 23.0 °F 69% 29.95 in 10.0 mi North 13.8 mph 18.4 mph N/A   Clear
11:15 PM 32.0 °F 22.5 °F 24.8 °F 75% 29.95 in 10.0 mi NNW 12.7 mph 18.4 mph N/A   Clear
11:35 PM 32.0 °F 23.6 °F 24.8 °F 75% 29.95 in 10.0 mi North 10.4 mph - N/A   Clear
11:55 PM 32.0 °F 23.6 °F 23.0 °F 69% 29.95 in 10.0 mi NNW 10.4 mph - N/A   Clear